Location: Burgwalden
(48.2830°N, 10.7576°E)
Time: 02:23:31
(UTC+00:00)

Meteor 1-11 Rocket - Pass Details

Date: 26 September 2023
Orbit: 830 x 915 km, 81.2° (Epoch: 04 December)

Event Time Altitude Azimuth Distance (km) Brightness Sun altitude
Rises 04:03:02 0° 348° (NNW) 3,487 6.9 -11.7°
Reaches altitude 10° 04:05:28 10° 349° (NNW) 2,557 6.2 -11.3°
Maximum altitude 04:11:19 88° 80° (E) 906 3.9 -10.3°
Drops below altitude 10° 04:17:15 10° 170° (S) 2,587 6.3 -9.3°
Sets 04:19:43 0° 170° (S) 3,530 7.0 -8.9°
